�������l�o���
Date,Time,MP-1(��Sv/h),MP-2(��Sv/h),MP-3(��Sv/h),MP-4(��Sv/h),MP-5(��Sv/h),MP-6(��Sv/h),MP-7(��Sv/h),����,����(m/s),���J
2022/10/26,00:00,0.150,0.135,0.214,0.206,0.209,0.119,0.076,�k�k��,12.0,��
2022/10/26,00:10,0.152,0.136,0.215,0.207,0.212,0.118,0.076,�k��,11.1,��
2022/10/26,00:20,0.151,0.135,0.215,0.205,0.212,0.118,0.075,�k�k��,12.2,��
2022/10/26,00:30,0.151,0.135,0.214,0.206,0.211,0.119,0.075,�k��,12.0,��
2022/10/26,00:40,0.151,0.136,0.215,0.207,0.211,0.118,0.076,�k�k��,11.5,��
2022/10/26,00:50,0.151,0.136,0.215,0.207,0.211,0.119,0.076,�k�k��,12.1,��
2022/10/26,01:00,0.151,0.135,0.215,0.206,0.209,0.119,0.075,�k��,13.1,��
2022/10/26,01:10,0.151,0.135,0.214,0.206,0.211,0.119,0.076,�k�k��,10.9,��
2022/10/26,01:20,0.151,0.136,0.215,0.207,0.210,0.118,0.076,�k��,10.9,��
2022/10/26,01:30,0.150,0.135,0.214,0.206,0.209,0.118,0.076,�k�k��,11.5,��
2022/10/26,01:40,0.151,0.135,0.215,0.206,0.210,0.118,0.076,�k��,10.9,��
2022/10/26,01:50,0.152,0.136,0.215,0.206,0.210,0.117,0.076,�k��,11.5,��
2022/10/26,02:00,0.151,0.135,0.215,0.206,0.210,0.118,0.076,�k��,10.9,��
2022/10/26,02:10,0.151,0.135,0.215,0.207,0.210,0.119,0.076,�k��,10.0,��
2022/10/26,02:20,0.152,0.135,0.216,0.207,0.211,0.118,0.075,�k��,9.6,��
2022/10/26,02:30,0.151,0.135,0.214,0.207,0.209,0.118,0.076,�k��,9.5,��
2022/10/26,02:40,0.151,0.135,0.214,0.207,0.211,0.118,0.076,�k�k��,11.1,��
2022/10/26,02:50,0.150,0.136,0.215,0.207,0.210,0.117,0.075,�k�k��,11.4,��
2022/10/26,03:00,0.151,0.135,0.215,0.208,0.211,0.118,0.076,�k��,11.7,��
2022/10/26,03:10,0.151,0.135,0.214,0.205,0.211,0.119,0.075,�k��,11.5,��
2022/10/26,03:20,0.151,0.136,0.215,0.207,0.209,0.119,0.076,�k��,10.6,��
2022/10/26,03:30,0.151,0.135,0.216,0.206,0.210,0.118,0.075,�k��,11.7,��
2022/10/26,03:40,0.152,0.135,0.215,0.207,0.212,0.119,0.076,�k��,11.1,��
2022/10/26,03:50,0.152,0.136,0.214,0.205,0.209,0.119,0.076,�k��,11.8,��
2022/10/26,04:00,0.151,0.135,0.215,0.207,0.210,0.118,0.076,�k��,10.9,��
2022/10/26,04:10,0.150,0.135,0.217,0.207,0.211,0.118,0.076,�k��,10.9,��
2022/10/26,04:20,0.152,0.135,0.214,0.206,0.210,0.118,0.076,�k�k��,11.4,��
2022/10/26,04:30,0.153,0.135,0.215,0.207,0.210,0.119,0.076,�k�k��,10.4,��
2022/10/26,04:40,0.151,0.135,0.215,0.208,0.211,0.118,0.076,�k��,10.6,��
2022/10/26,04:50,0.152,0.135,0.216,0.207,0.210,0.119,0.075,�k��,10.1,��
2022/10/26,05:00,0.152,0.135,0.214,0.207,0.211,0.119,0.076,�k��,9.5,��
2022/10/26,05:10,0.152,0.136,0.216,0.207,0.210,0.118,0.075,�k�k��,9.6,��
2022/10/26,05:20,0.151,0.136,0.216,0.208,0.210,0.118,0.075,�k�k��,9.8,��
2022/10/26,05:30,0.152,0.136,0.214,0.207,0.210,0.118,0.075,�k�k��,10.0,��
2022/10/26,05:40,0.151,0.135,0.214,0.206,0.210,0.118,0.075,�k�k��,9.6,��
2022/10/26,05:50,0.151,0.136,0.215,0.208,0.211,0.118,0.075,�k�k��,10.1,��
2022/10/26,06:00,0.152,0.136,0.216,0.207,0.211,0.118,0.075,�k��,10.4,��
2022/10/26,06:10,0.151,0.135,0.216,0.206,0.209,0.118,0.075,�k��,10.1,��
2022/10/26,06:20,0.151,0.135,0.216,0.206,0.210,0.118,0.076,�k��,9.8,��
2022/10/26,06:30,0.152,0.135,0.215,0.207,0.211,0.118,0.075,�k�k��,9.2,��
2022/10/26,06:40,0.150,0.135,0.215,0.207,0.210,0.119,0.076,�k�k��,11.2,��
2022/10/26,06:50,0.152,0.134,0.215,0.208,0.210,0.119,0.076,�k�k��,10.9,��
2022/10/26,07:00,0.151,0.136,0.215,0.207,0.212,0.120,0.075,�k��,10.0,��
2022/10/26,07:10,0.151,0.134,0.215,0.207,0.211,0.118,0.076,�k��,9.8,��
2022/10/26,07:20,0.151,0.135,0.215,0.208,0.210,0.119,0.075,�k��,9.5,��
2022/10/26,07:30,0.151,0.135,0.215,0.207,0.210,0.119,0.076,�k��,9.8,��
2022/10/26,07:40,0.151,0.136,0.215,0.207,0.210,0.118,0.076,�k��,9.8,��
2022/10/26,07:50,0.152,0.135,0.215,0.207,0.211,0.119,0.076,�k�k��,10.4,��
2022/10/26,08:00,0.152,0.136,0.216,0.208,0.212,0.119,0.075,�k��,9.8,��
2022/10/26,08:10,0.152,0.134,0.215,0.207,0.210,0.119,0.075,�k��,8.4,��
2022/10/26,08:20,0.152,0.134,0.215,0.207,0.211,0.118,0.076,�k��,8.7,��
2022/10/26,08:30,0.152,0.135,0.214,0.205,0.211,0.118,0.075,�k�k��,10.3,��
2022/10/26,08:40,0.151,0.135,0.215,0.207,0.211,0.118,0.075,�k�k��,10.1,��
2022/10/26,08:50,0.152,0.135,0.216,0.207,0.211,0.120,0.076,�k�k��,10.3,��
2022/10/26,09:00,0.152,0.135,0.216,0.206,0.210,0.119,0.076,�k�k��,9.0,��
2022/10/26,09:10,0.151,0.136,0.215,0.207,0.211,0.118,0.076,�k�k��,8.8,��
2022/10/26,09:20,0.151,0.134,0.216,0.206,0.209,0.118,0.076,�k�k��,9.2,��
2022/10/26,09:30,0.152,0.135,0.216,0.208,0.211,0.119,0.075,�k�k��,9.2,��
2022/10/26,09:40,0.152,0.136,0.216,0.206,0.208,0.118,0.076,�k,8.5,��
2022/10/26,09:50,0.150,0.135,0.215,0.208,0.211,0.119,0.076,�k�k��,8.5,��
2022/10/26,10:00,0.152,0.135,0.215,0.206,0.209,0.119,0.075,�k�k��,10.6,��
2022/10/26,10:10,0.151,0.136,0.215,0.207,0.211,0.119,0.076,�k�k��,7.7,��
2022/10/26,10:20,0.151,0.135,0.214,0.207,0.209,0.118,0.076,�k,8.1,��
2022/10/26,10:30,0.150,0.135,0.215,0.207,0.211,0.119,0.076,�k,8.7,��
2022/10/26,10:40,0.153,0.135,0.214,0.206,0.210,0.120,0.075,�k,9.0,��
2022/10/26,10:50,0.150,0.135,0.216,0.207,0.210,0.118,0.076,�k,7.3,��
2022/10/26,11:00,0.152,0.135,0.215,0.207,0.212,0.120,0.076,�k,8.1,��
2022/10/26,11:10,0.151,0.134,0.215,0.207,0.209,0.118,0.076,�k,9.2,��
2022/10/26,11:20,0.151,0.134,0.217,0.208,0.211,0.119,0.076,�k,9.8,��
2022/10/26,11:30,0.151,0.136,0.216,0.205,0.210,0.119,0.075,�k�k��,8.8,��
2022/10/26,11:40,0.153,0.135,0.217,0.208,0.210,0.119,0.076,�k,7.4,��
2022/10/26,11:50,0.150,0.135,0.215,0.205,0.211,0.119,0.076,�k�k��,8.2,��
2022/10/26,12:00,0.151,0.134,0.215,0.209,0.209,0.119,0.076,�k,10.1,��
2022/10/26,12:10,0.151,0.135,0.215,0.207,0.212,0.119,0.076,�k,7.5,��
2022/10/26,12:20,0.153,0.135,0.217,0.207,0.210,0.119,0.075,�k,10.3,��
2022/10/26,12:30,0.151,0.136,0.216,0.206,0.211,0.120,0.076,�k�k��,10.0,��
2022/10/26,12:40,0.152,0.135,0.216,0.207,0.214,0.119,0.076,�k,8.7,��
2022/10/26,12:50,0.152,0.136,0.216,0.208,0.210,0.119,0.076,�k,10.0,��
2022/10/26,13:00,0.152,0.135,0.216,0.206,0.213,0.119,0.076,�k,10.6,��
2022/10/26,13:10,0.151,0.136,0.217,0.208,0.210,0.119,0.076,�k,8.3,��
2022/10/26,13:20,0.152,0.135,0.216,0.207,0.211,0.120,0.076,�k,9.5,��
2022/10/26,13:30,0.151,0.135,0.217,0.208,0.212,0.119,0.076,�k�k��,7.8,��
2022/10/26,13:40,0.152,0.135,0.216,0.207,0.211,0.119,0.076,�k,7.1,��
2022/10/26,13:50,0.151,0.135,0.216,0.206,0.213,0.119,0.076,�k,7.3,��
2022/10/26,14:00,0.152,0.136,0.216,0.207,0.211,0.119,0.076,�k,7.6,��
2022/10/26,14:10,0.152,0.135,0.218,0.208,0.211,0.119,0.075,�k,8.1,��
2022/10/26,14:20,0.152,0.135,0.218,0.207,0.210,0.119,0.076,�k,8.1,��
2022/10/26,14:30,0.151,0.136,0.216,0.209,0.212,0.119,0.075,�k,7.1,��
2022/10/26,14:40,0.151,0.136,0.217,0.209,0.211,0.120,0.076,�k,7.0,��
2022/10/26,14:50,0.152,0.135,0.217,0.208,0.213,0.120,0.076,�k,7.7,��
2022/10/26,15:00,0.152,0.135,0.217,0.208,0.213,0.119,0.076,�k,5.8,��
2022/10/26,15:10,0.152,0.135,0.218,0.208,0.211,0.120,0.076,�k,9.5,��
2022/10/26,15:20,0.153,0.136,0.216,0.207,0.212,0.119,0.076,�k�k��,6.4,��
2022/10/26,15:30,0.152,0.136,0.216,0.208,0.212,0.119,0.076,�k�k��,7.1,��
2022/10/26,15:40,0.152,0.136,0.217,0.208,0.212,0.119,0.075,�k,6.9,��
2022/10/26,15:50,0.152,0.137,0.216,0.208,0.211,0.119,0.076,�k,5.5,��
2022/10/26,16:00,0.153,0.135,0.218,0.210,0.213,0.119,0.076,�k�k��,4.4,��
2022/10/26,16:10,0.152,0.136,0.217,0.208,0.211,0.118,0.075,�k,5.5,��
2022/10/26,16:20,0.152,0.136,0.217,0.208,0.212,0.120,0.076,�k�k��,5.8,��
2022/10/26,16:30,0.153,0.135,0.218,0.210,0.211,0.119,0.075,�k�k��,5.5,��
2022/10/26,16:40,0.153,0.136,0.218,0.207,0.212,0.120,0.075,�k�k��,6.0,��
2022/10/26,16:50,0.153,0.136,0.217,0.209,0.213,0.119,0.076,�k�k��,6.1,��
2022/10/26,17:00,0.153,0.134,0.217,0.210,0.211,0.119,0.076,�k�k��,7.7,��
2022/10/26,17:10,0.152,0.137,0.217,0.208,0.212,0.120,0.076,�k�k��,7.0,��
2022/10/26,17:20,0.153,0.136,0.217,0.208,0.212,0.120,0.076,�k�k��,7.3,��
2022/10/26,17:30,0.152,0.136,0.218,0.209,0.211,0.120,0.076,�k�k��,7.1,��
2022/10/26,17:40,0.152,0.136,0.218,0.209,0.213,0.120,0.077,�k��,6.7,��
2022/10/26,17:50,0.152,0.135,0.217,0.209,0.211,0.120,0.076,�k��,6.9,��
2022/10/26,18:00,0.152,0.136,0.216,0.210,0.210,0.119,0.076,�k��,6.6,��
2022/10/26,18:10,0.152,0.135,0.217,0.208,0.211,0.120,0.076,�k��,6.9,��
2022/10/26,18:20,0.152,0.137,0.217,0.208,0.212,0.120,0.076,�k��,6.8,��
2022/10/26,18:30,0.152,0.136,0.217,0.209,0.212,0.119,0.076,�k�k��,6.4,��
2022/10/26,18:40,0.153,0.137,0.217,0.208,0.213,0.120,0.076,�k��,6.0,��
2022/10/26,18:50,0.153,0.136,0.217,0.209,0.212,0.119,0.076,�k��,5.7,��
2022/10/26,19:00,0.152,0.136,0.218,0.209,0.211,0.120,0.077,�k��,5.7,��
2022/10/26,19:10,0.152,0.135,0.218,0.209,0.212,0.120,0.076,�k�k��,5.6,��
2022/10/26,19:20,0.152,0.136,0.217,0.209,0.212,0.120,0.076,�k��,5.6,��
2022/10/26,19:30,0.152,0.136,0.217,0.208,0.211,0.120,0.076,�k��,5.9,��
2022/10/26,19:40,0.152,0.136,0.218,0.210,0.212,0.121,0.077,�k�k��,5.9,��
2022/10/26,19:50,0.153,0.136,0.217,0.210,0.211,0.120,0.076,�k�k��,6.4,��
2022/10/26,20:00,0.152,0.137,0.218,0.209,0.211,0.120,0.076,�k�k��,5.6,��
2022/10/26,20:10,0.153,0.136,0.217,0.208,0.212,0.120,0.077,�k�k��,5.6,��
2022/10/26,20:20,0.153,0.137,0.217,0.210,0.212,0.121,0.076,�k�k��,5.3,��
2022/10/26,20:30,0.152,0.136,0.217,0.208,0.212,0.120,0.076,�k�k��,5.4,��
2022/10/26,20:40,0.152,0.136,0.218,0.209,0.212,0.121,0.077,�k�k��,5.7,��
2022/10/26,20:50,0.152,0.135,0.216,0.209,0.212,0.120,0.075,�k�k��,5.4,��
2022/10/26,21:00,0.151,0.137,0.218,0.209,0.211,0.120,0.075,�k�k��,5.8,��
2022/10/26,21:10,0.152,0.136,0.219,0.208,0.212,0.119,0.077,�k��,5.2,��
2022/10/26,21:20,0.153,0.136,0.217,0.209,0.211,0.120,0.077,�k��,5.5,��
2022/10/26,21:30,0.152,0.136,0.218,0.209,0.211,0.119,0.076,�k�k��,5.5,��
2022/10/26,21:40,0.153,0.136,0.217,0.208,0.212,0.120,0.076,�k�k��,5.6,��
2022/10/26,21:50,0.152,0.136,0.218,0.209,0.212,0.120,0.077,�k�k��,5.5,��
2022/10/26,22:00,0.153,0.136,0.217,0.209,0.211,0.120,0.076,�k�k��,5.5,��
2022/10/26,22:10,0.153,0.137,0.217,0.210,0.212,0.119,0.076,�k��,5.5,��
2022/10/26,22:20,0.153,0.136,0.219,0.208,0.212,0.119,0.076,�k�k��,6.2,��
2022/10/26,22:30,0.153,0.135,0.218,0.210,0.212,0.120,0.076,�k��,6.1,��
2022/10/26,22:40,0.152,0.136,0.218,0.210,0.211,0.120,0.077,�k�k��,5.9,��
2022/10/26,22:50,0.153,0.137,0.217,0.208,0.211,0.120,0.077,�k�k��,5.9,��
2022/10/26,23:00,0.152,0.136,0.217,0.208,0.211,0.120,0.076,�k��,5.9,��
2022/10/26,23:10,0.151,0.136,0.217,0.210,0.211,0.119,0.077,�k�k��,5.8,��
2022/10/26,23:20,0.152,0.136,0.217,0.208,0.212,0.119,0.077,�k��,6.0,��
2022/10/26,23:30,0.152,0.136,0.218,0.210,0.213,0.120,0.076,�k��,5.7,��
2022/10/26,23:40,0.152,0.136,0.218,0.209,0.211,0.120,0.077,�k��,5.6,��
2022/10/26,23:50,0.153,0.137,0.219,0.209,0.212,0.120,0.076,�k�k��,5.5,��
